When you browse on this site, cookies collect data to enhance your experience and personalize the content and advertising you see.
Visit our Privacy Policy to learn more. By continuing to use the site, you agree to this use of cookies and data.
  • En España
  • Lista de países
  • Para 7 días
  • Temperatura del agua
  • Mapa Satelital
  • El tiempo en el mapa
  • Informadores
  • user-avatar
    Iniciar sesión

    Tiempo cada hora Tarija

    Hoy, 18 Enero, Viernes

    Tiempo Temperatura Precipitaciones Viento Presión Humedad
    00:00 +18°C° 2.8 mm 3 mps 599 mmHg 92%
    01:00 +17°C° 2.8 mm 3 mps 599 mmHg 94%
    02:00 +17°C° 2.8 mm 3 mps 599 mmHg 97%
    03:00 +16°C° 1.4 mm 3 mps 599 mmHg 97%
    04:00 +16°C° 1.4 mm 3 mps 599 mmHg 97%
    05:00 +16°C° 1.4 mm 3 mps 599 mmHg 97%
    06:00 +14°C° 0.2 mm 3 mps 599 mmHg 96%
    07:00 +14°C° 0.2 mm 3 mps 600 mmHg 96%
    08:00 +14°C° 0.2 mm 3 mps 600 mmHg 95%
    09:00 +15°C° 0.2 mm 2 mps 600 mmHg 94%
    10:00 +15°C° 0.2 mm 2 mps 600 mmHg 93%
    11:00 +16°C° 0.2 mm 2 mps 601 mmHg 92%
    12:00 +16°C° 0.1 mm 2 mps 600 mmHg 90%
    13:00 +16°C° 0.1 mm 2 mps 600 mmHg 89%
    14:00 +16°C° 0.1 mm 3 mps 599 mmHg 88%
    15:00 +16°C° 0.1 mm 2 mps 599 mmHg 89%
    16:00 +16°C° 0.1 mm 2 mps 598 mmHg 90%
    17:00 +16°C° 0.1 mm 2 mps 598 mmHg 91%
    18:00 +15°C° 0.1 mm 2 mps 598 mmHg 92%
    19:00 +15°C° 0.1 mm 2 mps 598 mmHg 92%
    20:00 +15°C° 0.1 mm 2 mps 598 mmHg 92%
    21:00 +15°C° 0.2 mm 1 mps 599 mmHg 92%
    22:00 +15°C° 0.2 mm 1 mps 599 mmHg 91%
    23:00 +15°C° 0.2 mm 1 mps 600 mmHg 91%

    Mañana, 19 Enero, Sábado

    Tiempo Temperatura Precipitaciones Viento Presión Humedad
    00:00 +15°C° 0.1 mm 1 mps 599 mmHg 91%
    01:00 +15°C° 0.1 mm 1 mps 599 mmHg 91%
    02:00 +15°C° 0.1 mm 1 mps 599 mmHg 91%
    03:00 +14°C° 0.2 mm 1 mps 598 mmHg 91%
    04:00 +14°C° 0.2 mm 1 mps 598 mmHg 91%
    05:00 +14°C° 0.2 mm 1 mps 598 mmHg 90%
    06:00 +15°C° 0.2 mm 1 mps 599 mmHg 85%
    07:00 +16°C° 0.2 mm 1 mps 600 mmHg 80%
    08:00 +18°C° 0.2 mm 1 mps 601 mmHg 75%
    09:00 +19°C° 0 mm 1 mps 601 mmHg 70%
    10:00 +20°C° 0 mm 2 mps 602 mmHg 66%
    11:00 +21°C° 0 mm 3 mps 602 mmHg 61%
    12:00 +21°C° 0 mm 3 mps 601 mmHg 63%
    13:00 +21°C° 0 mm 3 mps 601 mmHg 64%
    14:00 +20°C° 0 mm 3 mps 600 mmHg 66%
    15:00 +20°C° 0.1 mm 3 mps 599 mmHg 69%
    16:00 +20°C° 0.1 mm 3 mps 599 mmHg 71%
    17:00 +19°C° 0.1 mm 3 mps 598 mmHg 74%
    18:00 +18°C° 0.1 mm 2 mps 598 mmHg 79%
    19:00 +17°C° 0.1 mm 2 mps 598 mmHg 84%
    20:00 +18°C° 0.1 mm 1 mps 598 mmHg 89%
    21:00 +16°C° 0 mm 1 mps 599 mmHg 90%
    22:00 +16°C° 0 mm 1 mps 599 mmHg 90%
    23:00 +16°C° 0 mm 1 mps 600 mmHg 91%

    Pasado mañana, 20 Enero, Domingo

    Tiempo Temperatura Precipitaciones Viento Presión Humedad
    00:00 +16°C° 0 mm 1 mps 599 mmHg 91%
    01:00 +15°C° 0 mm 1 mps 598 mmHg 92%
    02:00 +15°C° 0 mm 1 mps 598 mmHg 92%
    03:00 +15°C° 0 mm 1 mps 598 mmHg 92%
    04:00 +15°C° 0 mm 1 mps 597 mmHg 91%
    05:00 +14°C° 0 mm 1 mps 597 mmHg 91%
    06:00 +16°C° 0 mm 1 mps 598 mmHg 82%
    07:00 +19°C° 0 mm 1 mps 599 mmHg 74%
    08:00 +21°C° 0 mm 1 mps 600 mmHg 66%
    09:00 +22°C° 0 mm 1 mps 600 mmHg 60%
    10:00 +24°C° 0 mm 2 mps 600 mmHg 54%
    11:00 +26°C° 0 mm 3 mps 601 mmHg 47%
    12:00 +26°C° 0 mm 3 mps 600 mmHg 47%
    13:00 +27°C° 0 mm 3 mps 600 mmHg 47%
    14:00 +28°C° 0 mm 4 mps 599 mmHg 46%
    15:00 +27°C° 0 mm 4 mps 598 mmHg 50%
    16:00 +26°C° 0 mm 4 mps 598 mmHg 53%
    17:00 +26°C° 0 mm 4 mps 597 mmHg 56%
    18:00 +24°C° 0 mm 3 mps 597 mmHg 62%
    19:00 +23°C° 0 mm 2 mps 597 mmHg 67%
    20:00 +20°C° 0 mm 2 mps 597 mmHg 73%
    21:00 +20°C° 0 mm 1 mps 597 mmHg 76%
    22:00 +20°C° 0 mm 1 mps 597 mmHg 79%
    23:00 +19°C° 0 mm 1 mps 598 mmHg 82%

    21 Enero, Lunes

    Tiempo Temperatura Precipitaciones Viento Presión Humedad
    00:00 +19°C° 0 mm 1 mps 597 mmHg 82%
    01:00 +18°C° 0 mm 1 mps 597 mmHg 83%
    02:00 +18°C° 0 mm 1 mps 596 mmHg 84%
    03:00 +18°C° 0 mm 1 mps 596 mmHg 84%
    04:00 +16°C° 0 mm 1 mps 596 mmHg 85%
    05:00 +16°C° 0 mm 1 mps 596 mmHg 85%
    06:00 +19°C° 0 mm 1 mps 597 mmHg 77%
    07:00 +21°C° 0 mm 1 mps 598 mmHg 69%
    08:00 +23°C° 0 mm 1 mps 599 mmHg 61%
    09:00 +24°C° 0 mm 1 mps 600 mmHg 54%
    10:00 +26°C° 0 mm 2 mps 600 mmHg 47%
    11:00 +28°C° 0 mm 3 mps 601 mmHg 41%
    12:00 +28°C° 0 mm 4 mps 600 mmHg 39%
    13:00 +29°C° 0 mm 4 mps 600 mmHg 38%
    14:00 +29°C° 0 mm 5 mps 599 mmHg 37%
    15:00 +29°C° 0 mm 5 mps 599 mmHg 39%
    16:00 +29°C° 0 mm 5 mps 598 mmHg 41%
    17:00 +28°C° 0 mm 5 mps 598 mmHg 43%
    18:00 +26°C° 0 mm 4 mps 598 mmHg 51%
    19:00 +24°C° 0 mm 3 mps 598 mmHg 59%
    20:00 +21°C° 0 mm 2 mps 598 mmHg 67%
    21:00 +21°C° 0.2 mm 2 mps 598 mmHg 70%
    22:00 +20°C° 0.2 mm 2 mps 599 mmHg 74%
    23:00 +19°C° 0.2 mm 2 mps 599 mmHg 77%

    22 Enero, Martes

    Tiempo Temperatura Precipitaciones Viento Presión Humedad
    00:00 +20°C° 0.1 mm 1 mps 599 mmHg 77%
    01:00 +20°C° 0.1 mm 1 mps 599 mmHg 77%
    02:00 +20°C° 0.1 mm 1 mps 598 mmHg 76%
    03:00 +20°C° 0 mm 1 mps 598 mmHg 77%
    04:00 +20°C° 0 mm 1 mps 598 mmHg 78%
    05:00 +18°C° 0 mm 2 mps 597 mmHg 79%
    06:00 +20°C° 0 mm 2 mps 598 mmHg 73%
    07:00 +21°C° 0 mm 2 mps 599 mmHg 66%
    08:00 +24°C° 0 mm 2 mps 600 mmHg 60%
    09:00 +26°C° 0 mm 2 mps 600 mmHg 53%
    10:00 +27°C° 0 mm 2 mps 600 mmHg 46%
    11:00 +29°C° 0 mm 3 mps 600 mmHg 39%
    12:00 +30°C° 0 mm 3 mps 600 mmHg 38%
    13:00 +30°C° 0 mm 4 mps 599 mmHg 37%
    14:00 +32°C° 0 mm 5 mps 599 mmHg 36%
    15:00 +30°C° 0 mm 4 mps 598 mmHg 38%
    16:00 +30°C° 0 mm 4 mps 598 mmHg 39%
    17:00 +29°C° 0 mm 4 mps 597 mmHg 41%
    18:00 +27°C° 0 mm 4 mps 597 mmHg 47%
    19:00 +25°C° 0 mm 3 mps 597 mmHg 54%
    20:00 +23°C° 0 mm 2 mps 597 mmHg 60%
    21:00 +23°C° 0 mm 2 mps 597 mmHg 64%
    22:00 +22°C° 0 mm 1 mps 597 mmHg 67%
    23:00 +21°C° 0 mm 1 mps 598 mmHg 71%

    23 Enero, Miércoles

    Tiempo Temperatura Precipitaciones Viento Presión Humedad
    00:00 +21°C° 0 mm 1 mps 597 mmHg 71%
    01:00 +21°C° 0 mm 1 mps 597 mmHg 71%
    02:00 +21°C° 0 mm 1 mps 596 mmHg 71%
    03:00 +21°C° 0 mm 1 mps 596 mmHg 71%
    04:00 +21°C° 0 mm 1 mps 596 mmHg 70%
    05:00 +21°C° 0 mm 1 mps 596 mmHg 70%
    06:00 +22°C° 0 mm 1 mps 597 mmHg 65%
    07:00 +23°C° 0 mm 1 mps 598 mmHg 60%
    08:00 +25°C° 0 mm 1 mps 599 mmHg 54%
    09:00 +26°C° 0 mm 1 mps 599 mmHg 49%
    10:00 +28°C° 0 mm 2 mps 600 mmHg 44%
    11:00 +29°C° 0 mm 2 mps 600 mmHg 39%
    12:00 +30°C° 0 mm 3 mps 599 mmHg 38%
    13:00 +32°C° 0 mm 4 mps 599 mmHg 37%
    14:00 +33°C° 0 mm 5 mps 598 mmHg 36%
    15:00 +32°C° 0.4 mm 5 mps 598 mmHg 39%
    16:00 +30°C° 0.4 mm 4 mps 597 mmHg 42%
    17:00 +29°C° 0.4 mm 4 mps 596 mmHg 45%
    18:00 +27°C° 0.4 mm 4 mps 596 mmHg 51%
    19:00 +26°C° 0.4 mm 3 mps 596 mmHg 57%
    20:00 +24°C° 0.4 mm 3 mps 596 mmHg 64%
    21:00 +23°C° 0.4 mm 2 mps 597 mmHg 68%
    22:00 +21°C° 0.4 mm 2 mps 597 mmHg 71%
    23:00 +21°C° 0.4 mm 1 mps 597 mmHg 75%
    Mostrar más